EUTELSAT 117 WEST B (W*)

Last updated on Sun Apr 12 2026 00:03:34 GMT+0000 (Coordinated Universal Time)

1 41589U 16038B 26100.79982937 -.00000010 00000+0 00000+0 0 9998 2 41589 0.0116 68.6705 0000302 211.0329 90.2677 1.00271858 35980
UTC large
Height (km)
Speed (km/s)
/
Latitude / Longitude
Inclination (degrees)
Orbital Period (minutes)
Azimuth
Elevation
Range (km)
Doppler Factor

Next 0 passes for location: London (51.5072 / 0.1276)

Sorry there are no passes over London.
EUTELSAT 117 WEST B (W*)